RH
35 34 33 32 31 32 34 35 35 35 36 39 41 41 40 39 39 40 41 42 43 45 49 50 50 49 48 48 50 51 52 50 48 48 47 48 48 48 49 48 48 47 46 47 47 47 48 48 49 50 52 54 53 53 55 57 56 54 57 63 65 64 64 73 86 87 78 73 66 58 53 52 53 59 62 60 58 59 64 71 78 84 88 93 97
31 31 30 29 29 30 31 34 35 34 35 37 40 41 41 40 41 42 41 41 42 48 54 55 54 55 52 52 53 55 56 56 54 51 49 50 50 50 51 50 49 49 48 48 49 49 50 51 52 54 56 58 58 58 59 61 61 61 61 62 65 68 69 72 80 85 82 74 66 60 57 56 56 56 58 62 61 57 56 59 65 72 78 85 90
26 26 26 26 27 28 29 32 34 34 34 37 40 40 40 41 41 41 40 42 45 52 58 59 59 60 59 61 65 66 66 65 63 60 56 54 54 53 54 54 53 53 51 50 50 50 51 52 53 55 58 61 62 62 61 61 62 63 62 61 63 66 68 70 75 81 83 77 72 68 63 58 54 52 53 55 58 62 63 59 56 59 66 73 79
24 24 24 25 26 27 29 31 33 34 34 37 40 40 41 42 41 41 41 42 48 56 61 63 63 63 65 72 76 74 73 72 72 71 69 66 64 61 58 57 57 58 57 56 55 54 54 54 55 57 59 62 64 65 64 64 63 64 64 62 62 64 66 68 73 80 84 82 78 71 63 57 52 51 53 56 61 67 65 55 48 49 53 58 67
24 24 24 25 26 27 29 32 33 34 35 37 39 40 42 43 43 43 43 44 51 60 65 67 66 65 70 77 77 75 75 75 75 75 76 76 76 74 71 68 67 66 65 63 62 60 59 59 59 60 61 63 64 66 68 69 67 68 70 69 67 67 67 68 72 77 82 84 79 69 63 60 57 56 59 63 64 58 50 47 48 50 50 51 55
24 23 24 25 27 29 30 32 33 34 35 36 39 42 44 45 46 45 44 48 56 64 68 68 68 70 75 75 72 70 71 72 74 75 75 77 77 78 79 79 78 77 75 74 72 69 67 66 66 67 68 69 69 70 71 72 71 71 71 72 72 73 73 73 75 79 83 85 82 75 70 66 63 63 63 60 55 48 43 44 49 54 58 58 55
25 23 24 26 28 30 31 33 34 35 36 38 41 45 47 48 48 48 48 53 62 68 69 67 68 72 75 73 69 68 69 71 72 73 73 74 75 76 77 78 80 81 81 80 78 76 74 74 74 73 74 74 74 75 76 76 76 75 74 76 78 81 83 84 85 88 91 90 85 80 75 71 70 73 70 60 55 53 51 52 60 65 66 67 63
28 24 26 28 30 32 33 35 36 37 40 43 47 50 51 52 52 52 53 59 66 69 69 69 70 74 75 72 70 70 71 72 72 71 72 72 72 72 72 73 75 77 78 79 79 80 80 80 80 80 80 80 80 81 82 82 81 80 79 79 79 82 88 91 91 91 92 91 88 84 80 77 76 75 70 63 60 56 50 50 57 58 55 57 62
30 27 28 30 32 34 36 38 40 42 45 50 53 55 55 55 55 56 59 64 69 71 70 72 75 77 75 73 74 77 76 75 73 71 72 72 70 68 67 69 72 75 77 80 81 82 82 82 80 78 78 78 78 78 78 80 84 87 88 86 83 88 94 95 93 93 93 93 91 85 81 77 73 69 66 63 60 56 50 47 48 49 51 58 64
33 30 32 34 36 38 41 43 45 48 52 55 56 57 57 56 57 59 63 67 71 72 71 74 77 78 76 75 78 80 78 76 74 73 75 78 79 79 77 76 76 77 79 83 85 84 82 81 78 76 76 77 79 81 82 86 90 94 96 95 93 94 96 95 93 92 93 92 91 88 86 84 80 75 74 72 71 69 66 62 60 58 59 63 66
35 35 37 40 42 43 46 49 52 56 59 60 60 60 60 59 61 66 70 71 72 72 73 76 78 78 78 79 80 80 79 76 75 77 81 86 90 94 96 95 91 89 88 90 92 92 90 88 87 87 87 86 85 85 86 88 89 90 93 95 97 98 98 99 98 94 93 93 91 89 88 85 82 78 75 75 75 73 68 64 66 65 62 63 61
40 43 45 48 50 50 51 54 57 59 61 63 64 64 63 64 67 73 76 75 72 72 75 78 79 80 81 82 82 80 76 75 76 81 87 91 93 95 99 101 100 99 99 98 98 97 96 93 90 89 89 90 89 87 86 87 88 88 87 88 91 92 93 95 97 96 97 96 93 91 88 85 83 84 85 83 82 81 79 81 85 84 80 76 72
49 52 54 56 57 59 59 59 60 60 62 64 65 66 67 68 71 76 78 75 72 74 78 80 80 80 80 81 81 78 75 75 79 86 92 94 94 95 98 101 101 100 101 99 97 96 96 94 92 90 90 92 92 89 86 87 89 89 86 84 86 88 88 90 93 96 98 99 98 97 93 89 88 89 87 84 82 82 85 88 90 94 96 93 90
62 64 64 64 65 66 66 66 66 64 65 67 68 68 69 71 74 78 78 77 75 75 78 80 78 78 79 81 81 79 76 78 83 90 96 98 98 99 100 101 100 98 98 97 96 97 97 95 94 94 92 90 88 85 84 83 83 84 85 86 88 90 92 91 90 91 92 94 99 99 97 97 96 94 90 85 82 80 81 83 84 90 99 99 96
74 74 74 73 72 71 69 69 68 68 70 73 72 71 73 76 78 80 80 79 79 80 80 80 79 79 81 82 83 81 79 82 89 95 99 99 99 100 101 101 100 99 98 98 99 99 98 96 94 94 94 91 87 86 88 89 89 90 93 95 94 92 90 86 83 82 81 81 84 84 85 88 87 85 82 79 77 76 77 81 82 87 95 96 92
76 76 76 75 73 71 71 71 70 71 76 79 77 77 80 82 83 83 81 81 83 84 83 82 81 81 83 83 84 84 84 87 93 99 100 98 96 98 101 102 101 100 99 97 95 93 94 95 95 94 93 92 88 85 87 90 94 96 97 95 90 87 82 77 77 83 84 81 79 76 76 76 74 72 71 71 73 72 71 76 80 87 95 97 91
78 76 73 70 70 71 74 76 77 79 82 83 83 83 85 86 86 84 83 83 85 85 83 82 80 81 83 85 87 88 88 89 93 98 101 99 97 100 101 98 96 96 94 92 91 91 90 90 90 89 88 87 87 87 88 91 95 97 97 94 91 90 87 83 84 89 91 91 90 90 90 90 89 89 89 89 89 85 83 87 89 90 91 91 88
78 75 73 74 77 80 81 83 86 88 88 87 88 89 89 88 87 86 87 88 88 86 84 82 82 82 84 86 87 88 89 90 92 96 100 100 99 101 101 98 96 94 93 93 92 92 91 87 86 89 90 88 88 89 92 95 98 101 101 100 98 97 96 94 94 93 92 90 88 88 91 92 90 90 91 93 94 93 93 97 98 97 95 91 87
76 80 83 85 84 83 84 88 91 92 92 91 90 91 90 88 86 87 89 90 90 88 86 85 85 85 85 85 85 86 88 90 93 97 100 100 100 101 101 100 99 96 93 92 90 88 88 87 86 88 91 92 93 95 96 98 100 102 100 100 100 96 89 85 84 84 82 81 77 74 75 76 74 73 74 76 78 78 78 81 87 94 98 95 91
82 86 87 85 83 84 89 93 94 93 93 90 86 86 90 91 91 92 92 91 91 90 88 87 87 87 87 86 86 86 88 91 91 93 98 100 100 100 102 102 100 99 97 95 92 89 88 88 87 86 86 88 92 95 96 96 98 101 101 102 102 98 89 83 82 81 80 81 79 78 78 77 75 75 75 73 73 72 71 73 78 85 92 92 90
87 83 82 84 88 93 95 95 92 89 89 89 88 90 95 98 98 97 95 92 92 91 89 89 90 89 88 86 86 88 91 91 89 90 95 99 99 99 102 102 101 101 101 98 95 92 89 87 86 83 83 85 88 92 94 93 93 96 99 100 98 95 92 92 91 90 91 92 92 91 91 90 88 88 85 83 80 79 77 76 75 78 83 84 83
90 87 89 92 94 94 92 90 87 85 89 94 96 97 99 101 100 99 98 95 93 92 92 92 93 92 91 90 90 91 91 90 88 87 91 98 101 101 102 101 100 101 102 100 96 91 86 84 83 81 81 82 83 85 88 89 90 92 94 93 91 87 87 91 95 98 99 99 99 99 98 97 96 95 93 91 87 83 81 81 80 80 79 78 78
96 95 95 95 93 90 89 88 86 85 91 99 101 100 99 98 97 98 99 98 97 96 95 95 95 95 95 94 92 89 87 86 86 86 88 92 96 99 100 100 100 101 102 101 97 93 90 86 84 82 82 83 83 84 85 86 87 87 85 84 84 85 89 95 98 97 92 90 94 97 96 94 94 94 93 91 86 79 75 75 78 80 81 79 79
94 92 92 92 91 89 88 88 87 89 96 101 102 101 100 98 96 96 96 98 100 99 96 94 94 96 96 94 89 84 82 81 81 82 82 82 85 90 93 96 98 99 101 102 100 98 95 89 84 82 82 83 83 83 83 84 84 84 84 84 86 90 95 98 93 86 84 87 93 97 96 94 92 93 92 90 85 82 79 80 82 86 89 89 87
88 88 91 91 91 90 90 91 92 95 100 100 99 100 100 98 98 97 96 97 99 97 95 92 90 89 88 85 81 77 75 74 73 75 77 77 79 84 88 90 92 94 96 99 98 96 94 89 86 86 87 87 86 85 85 86 87 86 85 85 87 91 95 93 85 78 81 88 91 92 93 89 85 83 82 81 81 82 83 82 82 80 80 82 86
87 90 92 92 92 92 93 95 96 98 99 96 96 101 101 98 98 97 95 95 95 93 91 88 84 82 79 76 75 73 72 72 72 74 76 76 77 81 84 86 86 87 89 91 90 89 88 86 86 85 83 83 86 89 87 83 82 84 83 83 86 90 90 85 77 75 79 86 89 89 87 84 81 78 76 74 73 72 69 69 71 73 72 70 71
92 94 93 92 92 92 94 96 96 95 94 92 93 97 98 97 96 95 92 91 89 87 85 83 80 79 78 76 75 73 72 73 73 73 74 74 74 76 78 81 84 84 83 82 82 83 84 84 87 87 84 84 87 91 90 87 87 89 90 89 89 88 82 77 75 80 87 89 88 84 77 73 71 67 64 67 70 69 66 68 74 81 82 79 76
97 97 95 93 92 93 94 93 92 93 93 92 90 90 91 91 91 90 89 88 87 85 83 81 80 80 80 80 80 79 78 76 74 72 73 73 73 74 76 81 85 84 79 75 76 79 81 82 83 82 81 83 85 84 84 86 87 88 89 90 89 85 81 79 78 81 82 78 74 71 67 65 65 63 65 71 76 76 75 76 79 83 86 87 89
100 98 95 92 90 89 88 86 87 88 88 87 86 86 86 87 89 89 87 86 87 87 86 87 87 87 87 88 88 89 88 84 79 76 75 75 75 77 82 87 90 88 84 81 81 83 87 88 84 78 77 80 81 79 78 80 84 87 88 87 84 82 79 75 70 68 68 69 71 74 75 77 79 79 80 81 80 78 78 79 81 84 88 91 93
101 99 96 93 89 87 86 86 87 86 83 82 83 83 83 84 88 90 87 84 85 87 90 93 95 95 97 98 97 96 95 91 87 85 84 84 83 83 84 85 86 84 82 81 83 86 90 92 88 82 80 81 81 80 80 82 84 85 82 80 79 78 74 70 67 66 68 70 74 79 82 85 86 86 85 84 81 80 81 83 84 87 90 94 95
101 99 99 96 91 89 89 88 88 87 85 83 84 84 83 82 83 85 85 84 84 83 84 87 91 92 95 98 98 98 96 94 93 93 92 91 88 86 85 85 86 85 83 84 88 92 93 91 88 84 83 84 84 83 83 84 85 81 75 72 71 69 67 66 66 67 69 71 76 78 79 80 83 86 87 87 88 87 87 87 88 88 90 92 94
101 100 100 99 97 95 93 90 88 88 87 85 85 85 84 82 81 80 80 81 82 82 82 85 88 91 92 92 94 96 98 97 96 95 94 93 91 91 92 94 93 90 87 87 91 93 92 90 87 84 81 82 83 82 81 82 80 75 71 68 66 64 64 66 67 69 71 74 77 77 77 81 88 92 92 90 92 93 92 91 90 90 90 92 92
101 100 100 101 101 99 96 93 90 88 87 86 85 84 84 83 83 82 80 80 80 81 82 83 85 87 88 87 89 93 97 98 97 95 94 95 96 97 97 96 93 90 88 89 92 93 91 88 87 85 84 83 82 81 81 82 78 73 70 68 66 65 66 68 69 71 73 75 78 83 87 93 99 101 99 96 96 96 94 93 93 92 93 94 94
99 101 101 101 102 103 101 98 94 90 87 85 84 84 84 83 83 84 85 85 84 82 80 79 79 81 84 85 87 91 94 95 95 94 94 96 98 97 96 95 94 91 88 89 93 94 92 89 86 85 87 87 85 82 82 82 79 74 71 69 68 68 70 72 75 76 78 82 87 91 94 96 99 100 101 99 98 97 95 95 95 95 95 96 96
98 101 99 96 96 97 99 100 96 91 88 86 85 85 86 84 84 86 87 88 88 85 81 78 77 78 81 84 86 87 88 89 90 91 93 96 97 96 96 97 98 95 89 86 88 90 92 91 87 83 83 86 86 84 84 83 79 75 73 72 71 72 74 77 79 81 82 85 87 89 93 97 99 100 101 100 100 100 99 98 98 98 97 97 98
98 98 97 95 92 90 92 96 96 92 90 89 89 88 87 87 88 88 87 86 85 83 81 79 76 76 79 81 81 82 84 87 88 90 93 95 96 98 100 101 100 97 91 86 84 84 86 88 88 86 85 85 85 84 84 84 80 77 76 76 75 75 77 79 80 82 82 81 82 86 94 100 101 100 101 101 101 101 100 99 98 97 97 98 100
97 95 96 98 98 97 97 97 98 96 94 94 92 89 88 88 88 86 85 84 82 82 81 80 78 79 79 78 78 81 85 88 88 89 90 91 91 92 96 99 100 98 92 85 81 79 79 80 83 85 85 84 84 84 85 85 84 82 81 80 78 77 78 81 84 86 84 78 77 85 96 100 100 101 103 103 102 101 99 98 99 100 100 101 102
94 91 93 97 100 100 99 99 99 97 94 93 90 88 88 87 84 83 83 82 81 81 81 79 79 80 79 77 77 80 84 85 86 85 84 84 83 82 84 88 91 92 89 84 81 81 81 81 83 83 83 83 84 86 86 85 83 82 82 84 83 82 82 86 89 88 85 80 80 88 98 101 101 101 103 103 102 102 101 100 101 101 101 100 101
93 90 91 96 98 97 96 97 96 93 91 90 88 87 86 84 82 82 82 81 80 80 79 79 80 79 78 77 78 80 85 89 90 88 85 83 82 81 82 83 84 86 86 86 85 85 86 86 86 86 86 87 88 90 90 87 86 86 87 87 87 88 89 91 89 86 85 84 84 90 99 102 100 101 102 102 101 102 102 102 102 100 99 99 99
97 94 92 91 91 91 94 96 94 89 89 89 87 86 86 84 83 83 82 81 81 80 79 80 81 78 77 78 79 82 90 96 96 92 89 88 85 83 84 85 85 86 88 87 87 89 90 90 91 93 93 92 91 93 96 96 96 97 96 93 93 94 94 92 88 87 88 86 85 90 98 101 100 101 102 102 102 101 101 101 100 99 99 99 99
98 100 97 91 86 85 88 91 91 88 87 87 86 86 87 86 83 83 82 81 82 81 81 81 80 78 79 80 80 83 90 95 95 93 91 90 87 85 86 87 87 89 91 92 93 95 96 95 95 96 96 94 93 94 98 99 99 100 100 99 98 97 95 93 90 90 91 88 85 89 97 101 101 101 102 102 102 101 100 100 100 99 99 100 100
95 100 99 95 91 88 86 88 87 84 84 85 86 86 86 84 83 82 82 82 83 83 83 82 80 79 80 81 82 84 88 90 90 90 89 88 86 86 88 89 90 93 96 97 98 100 99 97 96 96 96 98 97 95 94 95 97 99 100 100 98 96 95 95 94 94 95 92 87 89 97 101 102 101 101 101 101 100 100 101 101 99 98 100 100
91 95 98 96 94 90 87 86 85 84 85 86 85 84 83 82 82 83 84 85 86 84 82 82 81 81 82 83 83 85 87 87 86 87 86 86 87 88 89 91 94 97 98 97 98 99 99 100 100 99 99 101 99 95 92 92 94 96 98 98 96 95 96 98 99 98 98 95 90 90 96 101 102 103 102 100 99 99 100 101 101 100 99 97 96
90 96 98 95 91 88 86 85 84 84 85 84 82 82 82 80 81 84 86 86 84 82 82 82 82 83 84 84 84 85 85 84 85 85 84 85 87 89 90 93 96 99 99 98 98 99 100 100 100 100 100 101 99 97 98 99 99 100 100 97 95 95 96 97 99 100 99 96 92 91 94 100 103 104 103 100 98 100 101 100 98 97 96 93 91
95 100 98 93 89 87 85 85 84 83 83 82 81 82 81 80 81 83 83 82 82 82 83 84 84 85 85 85 85 86 86 85 85 85 85 86 88 89 90 95 99 100 100 99 99 100 100 100 100 100 102 103 101 100 101 101 99 99 96 92 91 94 95 95 97 100 100 98 94 90 92 97 102 104 104 101 100 101 100 96 92 91 89 87 86
101 101 97 92 90 89 87 86 85 84 83 82 82 83 83 82 82 82 82 82 83 84 84 85 86 86 87 86 86 86 86 86 87 86 86 88 89 89 92 97 99 99 99 100 100 100 100 100 100 101 103 102 101 99 98 95 92 91 89 88 90 94 96 97 99 101 101 99 94 89 89 93 98 102 103 101 98 98 96 92 88 85 83 81 81
101 100 95 92 92 92 90 89 87 86 85 84 83 84 85 84 84 84 84 84 84 85 87 87 88 88 88 88 87 87 86 87 88 89 90 91 91 92 96 99 99 99 100 100 100 100 100 100 101 102 103 102 99 96 94 91 88 86 85 87 91 96 98 99 100 101 100 97 92 87 87 90 95 100 102 100 96 94 92 89 85 81 78 77 76
100 98 95 93 94 94 93 92 91 91 89 87 85 85 85 85 85 85 86 87 87 88 88 89 89 89 89 88 88 88 88 89 91 92 92 91 92 96 98 99 99 100 101 100 100 100 100 100 101 103 103 100 96 94 93 91 87 85 84 86 90 95 97 99 100 100 98 95 90 84 83 87 92 98 100 98 96 92 88 85 81 78 74 73 73
99 98 97 98 97 97 96 95 95 94 93 92 91 89 88 87 87 88 88 89 89 89 89 90 90 90 90 89 89 90 90 92 94 95 93 92 94 97 96 95 97 100 101 100 100 101 100 100 102 104 103 101 98 95 93 90 88 87 87 87 88 91 96 99 101 99 95 92 87 82 81 84 91 97 99 97 95 91 86 82 79 75 71 70 70
100 101 101 101 100 100 99 97 96 94 93 93 93 92 91 91 91 91 91 90 90 90 91 91 91 91 92 92 91 92 93 94 96 95 93 93 96 97 93 91 96 101 100 99 100 100 100 100 101 103 104 102 97 95 93 92 90 90 88 86 87 93 97 100 99 96 91 88 83 80 80 85 92 97 97 95 92 88 84 81 77 73 69 68 68
101 103 103 101 101 101 101 100 99 97 96 96 96 96 95 96 95 94 93 92 91 91 92 92 92 94 95 93 93 95 96 96 97 97 95 95 97 96 90 89 96 101 101 99 100 101 100 100 101 103 104 102 97 95 95 94 91 89 88 89 94 97 98 97 95 91 87 84 81 79 82 88 93 95 95 93 90 86 82 78 74 69 66 65 66
Wind_Speed
30 30 30 30 30 29 29 28 27 27 26 25 24 23 22 22 21 21 22 23 22 20 21 22 23 24 24 25 25 24 23 22 21 21 21 21 20 20 19 18 18 17 16 15 14 12 12 11 11 10 10 10 10 10 10 10 11 12 10 10 12 12 13 13 10 9 12 15 16 19 19 19 19 18 20 23 26 26 26 25 24 22 21 20 19
30 30 30 30 29 29 29 28 28 27 26 25 23 23 22 21 21 22 22 22 20 19 20 21 22 23 23 23 23 23 23 22 21 20 20 19 19 19 19 19 19 19 18 18 16 15 15 14 14 13 12 12 11 10 11 11 12 13 13 13 14 14 13 14 14 11 11 15 17 18 18 17 17 17 17 20 23 25 27 27 27 26 25 23 21
29 29 29 29 29 28 28 27 27 26 25 25 24 24 23 22 22 23 22 21 20 19 19 20 21 22 22 21 20 19 19 18 17 17 18 18 18 18 18 18 19 19 19 18 17 17 17 16 16 15 14 14 14 13 13 13 12 13 15 15 16 17 15 15 16 14 13 15 16 15 15 16 17 18 18 19 21 22 23 25 26 27 28 26 25
30 30 29 29 28 27 27 27 26 26 25 25 25 24 23 23 23 23 22 20 19 19 19 20 20 21 20 18 16 15 15 15 14 14 15 15 16 17 18 19 19 19 19 18 17 17 17 17 17 16 15 15 16 15 15 15 15 14 16 17 17 19 18 17 17 17 15 14 14 15 16 18 19 19 19 19 19 19 21 23 25 27 28 28 28
30 30 29 28 27 26 26 25 25 25 25 26 26 25 24 24 24 23 21 19 18 18 19 19 19 20 19 16 15 15 15 15 15 15 15 15 15 15 15 16 17 17 18 18 17 17 16 17 17 17 17 17 17 17 16 15 16 16 17 18 18 20 22 22 21 20 18 17 17 19 20 19 19 18 17 17 18 20 22 23 23 23 24 26 27
30 30 28 26 25 25 24 24 24 25 25 25 24 22 23 23 23 22 21 18 17 18 18 18 18 19 18 17 16 17 18 17 16 16 15 15 15 15 15 15 15 14 14 15 16 16 17 17 17 17 17 18 18 18 18 17 17 18 20 20 21 21 23 25 24 23 21 19 18 18 20 20 18 17 16 17 19 22 23 23 21 21 21 22 24
30 28 26 24 24 23 23 24 25 25 24 23 22 21 21 21 21 21 20 18 18 19 19 19 19 19 18 18 18 18 18 18 18 17 17 17 17 18 18 18 17 16 15 15 16 17 18 19 19 19 19 19 20 20 20 20 20 20 21 22 21 21 21 22 21 21 20 19 17 16 17 18 18 16 15 16 19 20 20 20 18 17 17 18 21
29 26 23 21 21 21 23 24 24 22 20 20 20 20 21 20 20 20 19 18 19 19 19 19 20 20 20 20 21 21 20 18 18 19 20 20 21 22 22 23 23 22 20 19 18 18 19 20 20 20 20 21 21 20 20 20 21 22 22 22 21 21 20 18 17 17 18 18 17 15 15 15 16 16 15 15 17 18 18 18 18 18 18 19 20
28 25 23 21 21 22 23 22 21 20 19 18 19 20 20 20 20 19 19 20 20 20 19 19 20 20 20 21 22 22 21 21 21 22 22 22 23 24 25 25 25 25 24 23 23 23 23 23 23 23 23 23 23 23 23 22 22 23 22 20 19 19 18 16 15 15 15 16 16 15 14 14 15 16 15 13 15 17 18 19 19 19 18 19 19
27 22 20 20 21 21 21 20 18 18 19 20 21 21 20 20 21 21 21 21 21 20 20 20 20 20 20 21 23 23 23 23 23 23 22 22 23 24 25 25 25 25 24 24 25 25 25 25 26 25 25 25 24 23 23 22 22 22 21 20 19 18 18 17 16 16 15 14 15 13 12 12 13 14 15 15 15 16 17 17 16 17 16 15 14
26 21 19 19 19 19 18 18 18 18 19 20 21 21 21 20 21 22 22 21 21 21 21 21 21 21 21 22 23 24 23 23 22 22 22 22 22 23 23 23 24 24 24 23 23 22 22 22 22 22 22 23 22 21 21 21 21 22 22 22 21 21 20 19 18 17 16 15 16 14 12 12 14 17 19 20 19 19 19 19 19 18 16 12 11
23 21 20 20 19 18 17 17 17 18 19 20 20 20 20 20 20 20 20 19 19 19 20 20 21 21 22 23 24 24 24 24 22 22 22 22 22 22 23 23 22 22 22 21 21 20 21 21 21 22 22 21 21 20 20 20 20 21 22 22 22 22 23 23 22 20 19 18 18 17 16 15 15 15 16 17 17 18 19 18 18 17 15 13 11
21 20 18 18 17 17 17 17 18 19 20 20 20 19 19 19 19 19 19 18 18 19 19 19 20 21 21 23 24 24 25 24 22 21 22 22 22 22 23 23 22 20 20 19 20 21 21 21 21 21 21 19 18 18 19 19 19 20 22 22 22 23 24 25 25 24 23 22 21 21 19 18 16 16 15 15 18 21 21 19 17 17 17 16 14
20 20 18 17 16 15 16 17 19 21 21 21 19 19 19 19 19 18 18 18 18 19 19 19 20 21 22 24 24 24 25 24 22 21 22 22 22 22 22 22 22 22 21 21 21 21 21 21 20 20 19 18 18 18 20 21 22 22 23 24 25 25 25 25 25 25 25 25 24 24 23 20 19 19 18 17 20 24 24 24 22 21 23 24 23
19 18 18 17 17 17 18 19 21 22 23 21 19 18 18 17 16 16 16 16 17 17 18 19 20 21 22 23 24 24 25 23 21 21 22 21 21 21 21 21 20 19 19 19 19 19 19 20 21 21 20 20 20 19 19 20 21 22 23 24 25 26 27 28 28 29 30 31 33 34 33 30 29 29 28 27 29 29 28 29 29 28 28 29 30
18 17 17 18 19 20 21 22 23 24 22 19 17 17 16 14 13 13 13 15 15 16 17 18 19 20 21 22 22 24 24 22 20 21 21 21 20 20 20 18 17 17 17 18 19 20 20 21 21 22 22 22 21 21 21 21 22 23 24 26 27 28 30 31 29 28 30 32 34 37 37 37 37 37 35 34 33 32 30 30 31 29 26 24 25
18 18 18 20 21 22 22 23 24 23 20 17 15 14 13 12 12 12 13 14 15 16 17 18 19 20 21 21 21 22 23 21 20 20 21 20 19 19 19 18 18 18 19 19 20 21 21 22 22 23 24 24 23 22 22 23 24 25 25 26 27 28 29 28 25 24 25 27 29 30 31 32 33 32 31 30 29 29 28 27 27 27 23 16 16
19 20 22 22 21 21 22 23 22 19 16 13 11 10 10 10 11 12 14 15 16 16 17 18 20 20 21 21 21 21 23 22 19 19 19 19 19 19 19 18 18 18 18 19 19 19 20 20 21 22 24 24 23 22 22 22 24 24 23 23 24 24 23 22 22 23 24 25 26 27 27 27 28 28 28 27 27 27 25 23 23 22 20 16 15
23 23 21 20 20 22 23 21 17 13 11 9 9 9 11 13 14 15 15 15 16 16 17 18 19 19 20 21 21 21 22 21 18 18 19 20 20 20 19 18 18 18 19 19 19 20 20 20 20 20 22 22 22 22 22 22 24 25 24 24 24 24 24 24 25 27 28 28 28 29 28 28 27 27 28 27 27 27 27 26 24 21 18 18 18
22 20 20 22 24 23 20 15 10 8 8 9 10 12 14 15 16 15 15 15 15 16 16 17 18 18 18 19 19 20 21 20 20 19 21 22 22 21 20 19 18 18 18 18 18 18 18 19 19 20 20 21 21 22 22 23 24 26 26 25 25 26 26 27 28 30 31 31 31 31 31 29 28 28 28 26 25 25 25 26 26 24 22 22 21
20 21 22 22 20 16 12 10 9 10 12 12 13 14 14 15 15 14 14 15 15 16 17 18 18 19 19 20 21 21 21 21 22 22 22 22 22 21 21 19 18 18 18 18 18 18 19 19 20 19 19 20 20 21 22 23 23 24 25 25 25 25 25 27 29 30 30 31 30 29 29 28 28 28 28 27 26 24 23 23 24 25 26 27 25
20 19 18 16 15 14 14 15 16 16 16 14 14 14 13 13 13 13 14 16 17 18 19 18 19 19 20 21 22 22 22 22 23 23 22 22 21 20 20 19 18 18 19 19 19 20 20 21 21 20 20 20 20 21 22 22 23 23 24 24 24 25 26 27 26 23 22 23 24 25 26 26 26 27 27 27 25 23 22 23 24 24 25 28 29
17 16 16 17 18 19 19 19 19 19 17 15 14 14 14 14 14 14 15 16 17 18 18 18 19 20 21 22 22 22 22 21 21 21 20 20 20 20 20 19 18 18 19 19 19 20 20 20 21 21 20 21 22 22 23 23 23 23 24 24 24 25 25 23 18 15 17 19 20 23 24 23 23 24 24 25 25 24 24 25 26 27 28 29 31
18 20 20 21 22 22 22 21 21 19 17 14 13 14 15 15 15 16 16 16 16 17 17 17 18 18 19 20 20 19 17 16 17 17 17 18 18 19 20 19 18 19 19 19 18 18 19 20 21 22 22 23 23 23 23 23 22 23 23 23 23 22 20 16 13 14 17 19 20 20 21 21 21 21 21 21 23 24 25 25 25 26 28 30 31
21 22 22 22 22 23 23 21 20 18 15 14 14 15 15 15 15 16 16 16 16 16 16 16 16 16 16 15 15 14 14 15 16 16 16 17 17 18 18 18 18 18 18 19 19 18 19 20 21 22 23 23 24 24 24 24 23 22 22 21 20 19 16 15 15 16 17 18 19 19 18 17 17 17 17 17 18 18 18 19 20 21 23 25 27
21 20 21 22 22 22 22 20 18 16 14 14 16 16 15 14 15 15 14 14 14 15 15 14 14 13 12 12 13 14 15 16 16 16 16 16 16 16 15 15 14 14 15 16 17 18 19 20 22 23 25 25 26 25 25 25 23 22 20 19 18 18 18 18 19 19 19 19 18 16 15 13 13 14 15 16 17 18 18 19 21 22 23 25 26
20 20 21 22 22 22 21 19 16 15 14 15 16 15 14 14 14 14 14 14 14 13 12 10 9 10 11 13 14 15 16 16 16 16 15 14 15 14 14 13 14 14 14 14 15 16 16 17 19 21 22 23 24 24 23 22 21 21 21 21 20 21 22 22 22 21 19 17 16 16 17 17 18 19 20 20 20 21 20 19 20 21 22 24 25
19 21 22 22 22 21 18 17 17 15 15 15 14 13 13 13 13 13 12 12 10 9 8 8 10 11 13 15 16 16 17 17 17 16 15 14 14 14 15 16 17 18 19 18 19 19 19 18 19 20 20 19 19 19 19 19 20 21 22 22 22 23 22 20 18 18 17 17 19 21 22 23 23 24 23 22 21 20 19 19 20 20 20 20 20
20 21 21 21 21 20 17 16 15 13 12 12 12 13 13 13 12 12 11 9 8 8 9 11 12 13 15 16 16 16 17 18 18 17 16 16 17 17 18 18 19 20 21 21 21 23 21 18 18 19 19 19 18 18 18 19 20 20 21 21 21 21 21 18 16 16 17 17 18 19 19 19 20 19 19 19 20 20 20 20 20 20 19 17 18
19 19 20 19 19 18 17 16 14 12 12 12 13 13 13 12 11 11 11 11 10 10 11 13 14 15 17 18 17 17 19 21 21 20 20 20 21 21 21 21 21 21 21 21 22 22 19 15 14 16 18 18 18 18 19 20 21 21 21 20 18 17 16 15 14 14 15 16 17 17 16 16 17 18 19 20 22 22 22 21 20 19 17 16 16
18 18 18 18 19 19 18 17 15 14 13 13 13 12 10 10 10 10 10 10 10 11 12 14 16 17 18 19 19 19 20 21 21 21 22 21 21 21 21 20 20 19 19 19 19 18 15 13 13 15 17 18 18 19 20 20 21 22 19 15 11 9 9 9 10 12 14 15 17 17 18 19 20 19 19 20 21 22 21 20 19 18 18 17 17
19 18 18 19 19 18 17 17 15 14 14 14 14 12 9 8 8 8 9 9 9 11 13 15 17 17 17 19 20 20 20 19 19 20 20 20 19 19 18 17 17 17 17 18 18 18 15 14 14 16 18 19 20 21 22 21 20 19 15 11 8 7 8 9 10 12 14 15 17 19 20 21 21 19 19 20 20 20 20 20 20 19 18 19 19
20 19 19 19 18 17 17 17 16 15 15 14 12 10 7 6 7 8 10 11 12 13 14 14 16 17 18 19 20 20 19 17 17 19 19 19 18 18 17 17 17 17 17 18 18 18 17 16 17 18 20 21 22 22 23 23 20 17 13 10 9 8 8 10 11 13 15 15 16 17 18 19 19 19 20 21 20 19 19 20 21 20 19 19 20
20 19 19 19 19 19 19 17 17 17 15 12 9 7 6 6 7 9 11 13 13 13 14 15 15 16 17 18 17 16 16 16 17 18 18 18 18 18 18 18 18 17 17 18 19 19 18 17 18 19 19 19 21 23 24 22 17 13 10 8 8 8 9 10 12 13 13 13 13 15 16 18 18 19 19 19 19 18 19 19 19 18 18 19 19
20 20 20 20 20 20 19 18 17 17 13 8 5 4 5 7 9 11 12 12 12 13 15 16 16 16 16 16 15 14 15 15 16 17 18 19 19 19 18 18 17 16 17 19 20 20 20 20 20 21 20 18 17 18 18 13 10 8 7 7 7 7 8 10 10 11 11 11 13 16 17 18 18 18 18 18 18 18 19 19 18 17 18 19 19
21 22 21 21 20 19 18 18 16 12 8 5 5 6 8 10 12 13 13 12 13 14 16 17 17 17 15 14 14 14 14 14 15 17 19 20 19 18 17 17 16 16 17 18 19 18 17 16 16 17 17 15 15 15 12 7 4 4 5 6 7 8 9 10 11 11 11 12 14 15 16 16 17 17 17 18 18 18 18 18 18 18 19 19 19
22 23 22 21 19 17 17 17 13 9 6 6 7 9 10 11 12 12 12 13 14 15 15 15 16 16 15 13 12 12 12 13 15 18 18 17 15 14 13 13 14 15 16 17 17 16 16 15 14 14 14 14 14 14 13 10 7 5 5 7 9 10 10 11 12 12 11 12 13 14 14 15 15 15 14 15 17 16 16 16 16 17 17 16 16
21 22 20 19 17 15 15 14 12 8 7 8 9 11 11 11 11 12 13 13 14 14 14 15 15 15 14 12 11 12 13 14 15 17 16 16 15 14 14 13 12 12 12 13 13 14 15 15 15 15 15 15 15 15 14 12 10 9 9 9 10 10 10 11 11 10 10 10 12 13 13 14 14 13 12 13 14 14 14 14 14 14 13 12 11
20 20 19 16 15 13 12 12 11 11 11 12 12 13 12 11 11 12 13 13 13 13 14 15 15 14 13 12 12 13 13 13 13 15 16 17 15 14 14 14 14 14 14 13 12 12 13 14 13 13 14 14 14 13 13 12 12 11 11 10 9 8 9 9 8 8 8 10 12 13 13 13 12 10 10 11 11 11 11 11 11 11 10 9 7
20 20 19 18 17 16 15 14 14 15 15 14 14 12 11 11 12 12 12 12 12 13 14 15 14 13 12 12 13 14 13 11 12 14 16 16 15 14 14 14 14 14 14 14 13 13 13 13 13 13 13 12 11 11 11 10 10 9 7 7 8 8 8 8 8 8 9 10 12 12 12 12 10 9 9 10 10 10 10 9 8 6 4 3 2
21 21 20 20 19 19 18 17 16 16 15 15 14 12 11 11 11 11 11 12 13 14 15 15 14 12 12 13 14 14 12 12 13 15 16 15 14 14 13 13 14 14 14 14 13 13 13 13 13 13 11 10 11 11 9 8 7 7 6 6 7 8 7 8 8 9 9 10 11 11 12 11 9 8 8 8 7 6 5 5 4 4 4 3 3
21 22 22 21 20 20 19 18 17 17 17 15 13 11 10 9 10 11 13 14 14 14 14 14 13 13 13 14 13 12 11 12 14 15 14 13 13 13 13 13 13 13 13 14 14 13 12 13 13 13 11 11 12 12 11 9 8 7 6 6 6 7 7 7 8 8 8 9 10 11 11 9 7 6 6 5 4 3 3 4 5 6 7 6 6
23 23 22 21 20 19 18 17 18 18 16 13 10 9 10 11 13 14 15 15 14 13 12 12 13 14 14 12 11 10 11 12 12 13 13 13 13 13 13 13 13 13 14 14 13 12 13 13 13 12 12 11 12 12 12 11 10 9 8 7 6 7 7 7 8 8 8 8 9 9 9 8 6 5 4 3 3 4 6 6 7 8 8 7 7
24 22 20 19 19 19 18 18 18 16 13 11 10 11 12 13 14 15 14 14 13 12 11 12 13 13 13 12 11 10 11 11 11 12 12 13 13 13 13 13 14 14 14 14 13 12 12 13 13 12 11 11 11 11 10 9 9 10 9 8 7 7 7 7 8 8 7 7 7 8 7 6 5 4 4 4 6 7 7 7 8 9 9 8 9
23 21 19 19 19 18 18 18 17 16 15 14 13 12 12 12 13 13 13 12 11 11 11 11 12 12 12 12 11 10 10 11 11 12 12 13 13 13 13 14 14 15 16 15 13 11 12 13 12 11 10 10 9 8 6 5 5 6 7 7 7 7 7 7 8 7 7 6 7 6 6 5 4 4 4 6 8 8 8 8 8 9 9 9 9
22 20 19 18 18 18 18 18 17 17 16 15 14 13 13 13 13 13 12 11 11 11 11 11 11 12 12 12 11 10 10 10 11 12 12 13 13 13 13 14 14 16 17 15 12 11 12 12 11 10 9 8 6 5 4 3 3 4 5 6 7 8 8 8 8 6 5 5 6 5 5 5 4 4 5 7 9 9 8 9 9 8 9 9 9
20 19 18 18 18 18 18 18 17 17 16 15 15 14 13 12 12 12 12 13 12 12 12 12 12 12 11 11 11 10 10 10 11 11 12 12 12 13 13 14 14 16 17 14 11 11 12 11 10 8 7 5 4 3 3 3 4 4 4 5 5 6 6 7 6 5 4 5 5 4 4 5 4 4 5 7 9 9 9 9 9 9 9 10 10
18 18 18 17 17 18 18 18 17 16 16 15 15 13 12 12 12 13 13 13 13 12 12 11 11 11 10 10 10 10 9 10 10 10 11 11 12 12 13 13 14 16 16 13 10 11 11 10 8 6 5 5 4 4 4 4 4 5 5 4 4 4 4 5 5 5 4 4 4 4 4 5 4 4 6 8 9 10 10 10 10 10 10 10 10
18 18 17 17 17 17 17 17 17 17 16 16 15 14 13 13 13 13 13 13 12 12 11 10 10 10 10 10 9 9 9 10 10 10 10 10 11 12 13 13 13 15 14 12 11 12 11 9 7 5 5 5 5 5 5 5 4 4 4 4 3 3 3 3 4 4 4 4 4 3 4 4 4 5 7 8 10 10 11 11 11 10 10 10 11
17 17 17 18 18 17 17 17 17 17 16 16 15 14 13 13 13 13 13 13 12 11 10 9 10 10 10 9 9 9 9 9 9 9 10 10 11 12 13 13 13 14 13 11 11 11 11 8 6 5 4 4 5 5 5 4 3 3 3 2 2 2 2 3 4 4 3 3 3 3 3 4 5 6 8 9 10 11 11 11 11 11 12 12 12
18 17 18 18 18 18 17 17 16 16 16 16 15 14 14 13 13 13 13 12 12 10 10 10 10 9 9 9 9 9 8 8 8 8 9 9 10 12 13 13 13 13 13 12 11 10 10 8 6 5 4 4 4 4 3 2 2 2 1 0 1 2 4 5 4 3 2 1 2 2 2 3 5 7 9 10 11 11 12 12 12 12 12 12 12
Wind_Direction
251 251 252 251 249 249 249 248 248 248 248 246 245 249 253 257 262 270 276 278 278 278 280 284 284 284 282 279 278 277 273 265 256 252 250 248 248 247 245 245 246 246 248 250 249 249 255 258 258 259 263 268 277 287 286 285 295 303 301 293 288 287 286 283 279 283 285 288 294 299 305 309 310 313 315 313 308 304 301 300 303 312 319 321 319
252 251 251 250 248 248 248 247 246 246 246 244 245 249 253 258 265 270 273 275 278 278 280 284 284 284 283 280 278 277 277 274 265 257 254 252 251 250 248 248 249 250 252 253 251 251 253 253 252 251 254 262 271 275 277 286 298 301 298 297 293 287 285 287 288 289 290 292 295 298 302 306 307 309 312 311 309 308 303 298 297 300 306 312 317
254 252 251 249 249 250 249 248 246 246 246 245 247 250 253 258 264 268 271 275 278 277 276 279 282 282 283 283 283 282 282 283 278 270 265 262 260 259 257 254 253 255 257 257 256 255 252 251 252 252 250 254 260 262 267 277 284 288 293 296 295 293 291 289 288 288 289 292 294 297 302 304 302 302 304 302 303 305 304 301 298 297 297 301 306
258 253 250 249 250 250 250 248 247 246 245 245 250 254 257 259 264 270 274 275 273 272 273 275 276 278 281 284 285 286 287 289 289 286 282 278 274 272 268 263 258 256 256 257 258 257 256 254 255 256 256 256 258 259 262 269 272 276 281 285 290 293 294 292 288 286 288 291 291 293 296 296 295 296 299 299 296 294 296 299 298 296 295 295 297
262 254 250 249 249 250 251 251 249 248 248 249 252 256 258 261 265 270 275 273 268 268 269 270 271 273 276 280 283 285 288 291 291 290 289 288 286 284 281 277 270 262 258 258 259 261 261 261 261 261 261 260 261 263 263 265 268 270 273 276 282 288 290 290 287 286 287 288 288 290 290 288 287 288 289 291 292 292 293 293 294 294 294 293 293
267 256 249 248 249 251 253 253 253 252 252 254 257 258 258 261 265 268 271 269 264 263 265 267 269 271 273 276 281 282 284 285 287 287 287 287 288 287 287 286 282 274 266 263 262 261 262 264 264 262 261 262 264 265 266 265 267 269 271 274 279 284 285 285 285 284 282 281 284 287 287 285 284 283 282 283 286 287 286 285 285 286 287 289 290
273 258 251 251 251 252 253 255 257 258 258 260 262 262 262 262 263 265 266 263 259 259 261 264 267 269 271 274 278 278 277 277 279 281 282 282 283 283 283 284 284 281 275 270 267 266 264 263 263 263 263 265 266 266 267 268 270 271 272 275 280 283 281 279 280 281 282 282 283 282 281 281 281 280 280 283 284 281 279 281 282 283 285 285 285
275 260 254 255 253 256 261 263 263 265 266 265 262 261 261 261 261 262 261 258 258 258 258 261 264 264 266 271 273 274 272 272 275 278 279 278 278 280 280 281 282 281 277 273 269 267 265 263 263 263 264 264 264 265 267 269 272 272 271 272 276 277 274 270 272 277 282 284 284 282 283 285 287 288 288 290 290 286 282 280 281 283 283 282 281
277 262 257 258 259 264 269 270 268 267 268 268 266 264 262 261 261 260 257 255 255 255 256 259 260 259 263 267 267 267 268 272 276 278 277 276 276 276 276 275 275 275 274 271 268 265 264 263 264 265 266 266 266 267 268 268 267 268 268 267 267 268 267 267 269 274 279 284 284 286 289 288 286 286 286 283 280 282 286 285 283 282 283 283 281
278 266 262 263 267 271 272 272 272 268 267 267 267 266 263 262 261 257 252 250 249 250 254 257 256 258 262 264 263 264 267 270 273 274 274 274 274 273 271 270 270 270 269 268 267 267 267 267 269 269 269 268 267 266 265 263 260 261 261 259 257 258 261 264 265 267 271 276 278 283 289 291 292 297 300 298 296 302 310 307 302 302 304 303 296
281 277 277 278 281 282 277 272 270 268 266 264 263 262 260 258 257 253 248 247 246 248 251 252 253 257 259 261 261 262 264 264 266 270 272 272 273 272 270 267 266 264 264 264 264 265 267 267 267 268 266 264 263 262 261 260 260 260 260 258 256 254 255 256 258 260 263 266 270 274 278 285 290 294 295 297 301 307 310 308 306 307 308 305 296
291 288 288 288 288 286 282 276 272 270 268 264 260 258 256 255 254 249 245 245 246 248 248 249 252 255 257 258 258 258 261 263 265 269 271 273 274 273 270 267 262 258 255 255 258 261 262 263 263 263 262 260 259 259 260 261 261 260 260 261 260 258 257 257 257 258 259 261 263 261 259 263 269 273 278 288 299 304 305 306 306 305 303 296 290
303 300 296 293 288 284 282 280 278 277 274 268 262 257 255 255 252 246 243 245 248 250 249 248 251 255 259 259 258 259 261 263 265 268 271 274 276 273 270 268 265 261 258 258 260 262 262 262 262 260 258 258 258 260 263 266 266 265 263 262 261 260 260 259 259 260 261 262 262 259 255 254 256 258 266 281 295 300 302 302 302 304 305 300 298
312 309 306 302 297 291 288 286 284 281 276 269 263 259 257 256 252 246 244 246 249 250 249 249 253 259 262 262 261 261 262 262 264 268 271 275 275 273 271 269 267 265 263 261 260 259 260 262 264 264 262 261 261 263 265 266 266 265 264 260 258 257 257 258 259 262 264 265 267 267 265 261 260 261 263 269 277 282 286 289 290 293 297 295 294
314 312 310 308 305 301 296 292 287 281 275 268 263 261 259 257 252 246 245 248 250 250 250 254 258 261 263 262 261 261 261 262 264 267 271 275 276 273 271 268 265 263 261 260 259 260 262 264 266 268 268 265 263 262 263 265 264 264 262 260 258 258 259 261 262 264 266 266 267 268 268 268 268 269 270 269 268 267 268 272 275 279 284 287 287
313 312 310 308 304 299 294 289 284 280 274 267 262 262 261 259 255 251 250 252 253 253 254 258 262 265 265 263 260 259 260 261 264 268 272 276 277 276 276 274 274 273 272 270 269 267 266 265 265 265 265 265 262 260 260 262 264 266 268 268 269 270 269 269 270 268 267 267 267 267 268 269 269 269 269 267 265 264 262 262 265 268 274 278 279
311 309 307 303 298 293 289 286 283 279 273 265 261 261 260 258 257 257 258 257 255 255 258 262 265 266 265 262 260 260 261 262 264 268 272 276 278 279 279 278 276 274 272 270 268 264 262 262 263 263 264 264 263 260 258 258 260 263 266 267 269 269 269 271 271 269 267 266 266 266 267 269 268 267 265 261 257 256 251 247 247 248 252 261 268
309 305 301 298 297 295 293 289 283 276 270 266 265 266 263 260 262 261 259 257 257 257 260 264 265 263 262 262 261 262 264 264 263 266 269 275 279 279 278 275 271 269 268 266 264 263 262 261 260 260 261 261 260 259 256 256 258 259 261 264 265 264 266 269 270 269 267 265 265 266 268 269 270 269 269 267 263 261 255 250 250 248 245 244 250
305 302 301 304 307 304 297 287 278 272 271 273 276 278 272 266 265 261 256 255 258 261 262 263 264 261 260 261 262 263 264 263 260 263 270 276 278 278 276 272 267 264 263 262 263 265 264 262 260 259 260 260 259 258 256 255 254 254 255 256 258 259 263 265 265 265 265 264 265 267 269 271 273 274 274 274 274 274 273 271 269 268 262 256 254
307 311 315 317 313 305 293 282 277 283 286 286 287 283 273 264 259 254 252 255 259 262 263 263 263 262 261 263 264 264 263 262 261 266 272 276 277 276 273 268 262 260 258 257 259 262 263 262 260 259 260 261 259 259 259 258 256 254 252 248 248 253 259 262 263 263 263 263 264 266 267 269 271 272 273 274 274 275 276 276 273 267 263 261 260
320 324 325 323 317 310 306 309 313 311 301 291 285 277 265 257 253 250 251 255 259 262 263 263 263 265 265 266 267 265 263 263 267 270 273 274 276 276 275 271 266 263 259 256 257 260 262 263 263 262 262 261 260 260 261 262 261 260 258 254 253 257 259 259 261 261 259 258 259 260 261 262 263 265 266 266 266 267 268 271 271 266 259 257 257
331 332 332 330 327 324 323 319 316 312 303 286 271 264 258 254 255 254 254 257 259 261 261 261 263 266 267 267 265 264 265 267 270 270 271 273 276 277 277 275 270 265 259 255 253 255 258 260 262 263 262 260 261 262 262 263 263 263 263 262 262 262 261 259 260 261 260 261 260 258 256 255 255 257 258 257 256 258 259 260 261 259 255 254 253
336 338 334 328 322 320 316 311 307 304 294 276 263 261 261 259 259 259 258 258 258 258 259 261 263 264 265 264 264 265 267 268 269 269 271 273 276 277 278 276 273 269 264 258 252 251 254 258 261 264 264 263 263 264 264 265 265 264 265 264 264 265 266 267 270 278 281 280 275 264 254 250 251 252 251 251 251 253 255 255 254 253 250 250 251
338 334 327 320 315 312 308 303 300 293 281 270 267 265 262 260 259 259 260 258 256 257 259 260 260 258 257 259 262 266 269 272 272 273 275 277 279 280 280 279 276 274 272 269 264 260 258 259 262 264 264 264 265 266 267 268 269 270 270 271 272 274 275 277 284 290 289 286 281 269 254 246 249 252 251 251 253 255 255 254 255 255 251 249 249
334 327 319 313 309 306 302 296 291 282 270 267 271 267 261 260 258 256 257 255 254 255 257 256 256 257 258 262 269 276 280 282 282 281 280 282 284 285 285 284 282 279 277 275 274 271 267 265 266 268 267 267 268 270 271 274 277 279 279 279 279 279 279 280 283 284 281 279 280 276 264 254 255 260 263 265 267 269 270 271 273 273 269 264 260
329 322 315 310 307 303 298 292 286 277 270 271 271 264 258 257 257 255 255 255 255 258 259 258 259 265 272 281 287 290 290 288 287 285 284 284 285 285 286 287 287 286 283 278 275 272 270 267 267 267 266 266 266 266 269 273 275 275 275 274 273 272 273 275 275 272 269 270 275 280 280 278 277 277 280 282 280 279 282 285 285 282 277 273 271
326 318 313 310 306 301 294 290 286 278 273 274 273 267 261 257 255 254 254 256 259 262 265 271 282 293 298 299 297 295 292 290 288 287 286 286 288 290 292 297 302 306 306 301 294 287 281 275 273 273 272 271 268 266 267 270 271 270 269 267 264 264 268 269 266 260 260 267 278 285 285 285 285 284 284 283 279 278 279 281 281 279 276 274 270
320 313 311 308 304 298 291 289 287 282 279 277 274 273 270 265 260 257 254 255 260 268 281 294 301 301 299 297 296 294 291 288 286 286 287 287 288 289 292 297 303 307 306 304 301 298 292 288 287 291 293 290 283 277 274 274 273 271 267 262 259 260 263 262 260 259 264 273 279 281 280 279 278 277 276 274 272 274 276 275 274 274 275 276 272
314 310 310 308 302 296 294 294 292 286 284 282 277 274 273 270 265 260 256 257 267 281 288 290 290 289 287 286 288 289 287 285 284 284 284 284 282 284 288 293 296 297 295 292 289 286 284 282 283 288 291 291 287 281 274 270 268 266 262 258 256 256 254 255 261 269 274 278 281 281 280 280 279 277 276 275 275 275 274 272 271 271 271 270 268
311 309 309 307 304 303 304 305 300 293 290 287 279 273 269 266 261 257 259 265 272 275 277 281 285 287 286 284 283 281 281 283 285 285 283 282 282 283 285 286 286 285 284 283 280 278 278 277 277 277 278 278 276 272 267 261 256 257 257 254 250 246 245 252 263 271 274 276 279 282 284 288 289 288 285 282 279 277 274 271 269 269 267 264 264
310 307 306 306 306 306 305 303 298 292 288 285 279 274 269 263 261 263 269 275 280 280 282 286 289 289 289 289 287 283 281 283 286 287 286 284 284 283 283 284 284 283 283 286 286 284 282 280 278 275 274 272 269 267 266 258 248 246 248 245 238 238 248 258 266 271 273 274 275 277 283 288 290 288 283 279 277 276 276 275 273 269 265 263 263
309 306 305 304 303 302 301 299 296 290 283 278 273 268 264 263 265 270 275 281 290 295 294 294 294 292 291 291 290 288 286 286 287 288 288 287 287 288 290 291 289 287 287 290 290 288 282 277 274 271 270 270 268 267 267 261 247 239 237 234 232 241 254 261 266 269 271 274 278 281 286 288 285 280 276 276 277 277 277 277 277 275 271 266 262
312 308 306 304 300 299 299 298 295 289 280 271 264 258 257 268 279 283 284 285 290 295 296 295 297 298 296 294 293 290 290 291 292 292 293 293 294 296 296 293 289 286 285 282 280 278 276 271 266 261 257 256 257 260 265 262 249 234 227 227 232 242 253 259 265 268 272 277 283 287 288 288 285 281 279 278 278 279 280 280 280 276 271 266 264
320 313 308 304 299 295 293 290 288 286 279 269 262 260 262 278 289 290 289 289 290 293 295 296 298 300 298 297 295 293 292 295 297 297 298 297 296 294 292 288 284 281 278 274 272 270 268 266 265 264 260 256 254 256 261 259 244 224 217 223 232 242 254 261 266 271 278 283 284 284 286 287 286 285 284 283 281 279 279 279 278 275 269 265 264
321 314 309 304 299 295 291 285 281 281 279 268 257 263 274 286 290 286 283 284 287 293 298 300 302 303 301 299 297 296 296 297 299 301 302 300 298 295 290 285 281 276 271 268 264 262 259 257 257 260 265 270 273 272 268 256 231 211 215 226 232 241 252 259 264 269 275 281 284 286 289 289 286 285 286 285 282 280 278 277 277 276 274 271 267
317 312 306 302 298 297 298 294 285 280 280 266 259 280 290 289 286 281 278 280 287 291 295 299 302 303 301 298 298 299 300 302 307 308 306 303 299 292 281 273 268 267 268 267 267 268 269 267 265 266 273 284 298 304 304 296 268 245 241 237 236 244 253 258 262 266 272 282 290 295 296 293 288 287 285 281 278 278 278 279 280 279 277 275 270
317 312 307 304 300 297 302 305 299 290 286 281 281 291 292 284 279 278 279 283 288 290 293 299 303 303 301 299 300 302 306 312 315 313 310 310 312 310 297 281 270 265 267 271 276 283 290 293 295 299 303 306 308 312 316 318 313 300 282 262 253 256 263 264 264 266 275 291 302 306 305 299 293 290 287 282 281 282 281 280 281 278 275 272 269
320 315 311 313 313 308 306 309 310 309 305 299 294 291 284 279 279 281 283 285 287 290 295 299 300 299 298 301 304 306 309 314 318 318 318 321 327 331 330 323 312 299 292 291 290 292 296 300 303 305 308 309 308 307 307 306 304 301 292 277 263 261 266 265 264 268 280 297 309 310 305 299 295 292 286 281 282 285 282 277 275 274 272 269 266
325 319 316 320 324 321 311 305 305 306 301 296 291 285 279 279 281 283 285 289 291 293 296 296 295 294 296 304 311 310 309 312 318 320 319 319 322 326 328 328 327 324 320 316 312 308 307 307 307 308 306 304 305 305 300 294 291 289 282 267 254 253 258 257 258 266 281 296 306 309 306 302 298 293 286 280 277 276 272 270 270 270 269 265 260
324 320 317 317 318 315 308 299 295 295 291 287 286 283 280 283 286 288 291 293 294 296 296 293 292 295 300 305 309 307 304 309 317 316 311 310 314 320 322 320 320 320 320 319 318 315 312 308 307 310 309 303 304 307 304 293 286 282 273 257 249 251 252 249 250 261 281 297 305 308 309 307 300 288 279 273 269 266 265 266 264 256 248 243 220
324 318 313 311 310 308 304 299 295 294 293 291 289 288 289 292 294 295 296 296 295 296 295 292 293 299 303 304 304 302 303 312 316 311 306 306 310 314 315 315 316 317 318 319 318 315 312 309 307 309 309 306 304 304 301 295 291 286 279 268 259 255 253 253 259 270 285 297 302 308 312 310 301 287 276 267 262 262 259 247 220 184 153 125 113
324 317 311 306 303 300 299 299 299 300 299 296 295 294 295 297 300 300 298 295 293 292 292 293 296 300 302 303 302 302 306 311 310 308 308 311 313 315 315 316 317 318 318 319 320 318 313 309 305 302 301 301 299 293 288 288 291 288 283 274 263 257 256 259 267 276 284 290 296 305 312 313 303 286 266 248 237 223 202 183 163 143 129 115 106
323 317 310 306 304 303 305 306 306 305 301 298 299 301 301 301 302 299 294 290 289 289 291 295 299 300 301 302 302 304 307 308 307 309 314 315 314 316 317 318 320 321 319 318 316 314 312 308 302 297 294 294 294 291 286 280 272 267 269 268 260 257 259 261 267 274 278 283 292 302 308 310 302 277 247 211 182 182 185 177 157 137 126 119 110
323 317 311 311 313 315 316 314 313 312 311 310 308 306 303 302 299 294 288 285 286 288 291 294 297 299 299 300 302 304 305 306 308 311 313 313 313 315 317 319 321 321 320 317 314 312 311 307 300 294 291 293 296 296 290 274 257 254 259 261 256 257 263 265 267 271 272 275 286 298 305 309 300 265 222 179 166 174 179 168 149 135 128 122 113
321 314 312 315 317 317 317 316 315 316 317 316 311 306 303 302 300 296 292 288 287 289 292 294 295 297 298 300 303 303 303 307 311 311 310 312 314 314 316 319 321 321 321 320 320 318 316 312 306 300 297 298 300 299 290 269 251 250 257 261 259 258 260 262 266 268 267 267 274 286 297 302 290 257 210 178 172 177 175 161 147 138 129 120 110
318 313 313 316 317 317 317 316 315 314 312 310 307 304 301 300 298 297 297 295 291 288 288 288 290 293 296 297 300 301 303 306 310 311 312 313 313 315 318 320 321 321 323 324 326 327 325 318 310 305 306 307 307 300 288 282 277 266 265 268 267 262 260 263 264 259 252 253 260 273 289 292 276 247 213 189 182 182 175 160 148 140 131 122 115
319 317 317 317 318 318 317 314 314 312 310 307 305 303 299 297 296 295 295 295 292 288 284 284 286 288 290 293 295 298 301 306 308 311 314 314 315 319 323 323 322 324 327 330 334 336 330 319 309 308 314 317 315 305 299 303 302 289 279 276 274 270 266 263 254 235 223 234 249 266 284 282 263 234 209 193 186 183 173 159 148 141 133 125 120
319 318 319 318 318 316 315 314 314 313 312 310 308 305 302 300 298 296 294 292 288 285 283 283 283 283 285 290 293 294 297 303 308 311 314 317 321 326 326 324 325 329 332 335 341 340 332 323 322 328 329 322 315 313 310 304 298 292 286 278 273 273 269 254 231 204 199 219 238 258 276 275 254 221 201 190 183 178 168 155 146 140 134 127 124
316 317 317 316 315 313 312 313 313 314 314 313 311 309 307 304 300 298 296 293 289 287 284 283 283 284 285 287 290 293 296 302 307 312 316 320 325 326 324 323 329 335 338 342 349 348 339 333 334 341 337 326 318 314 310 305 297 291 286 279 273 270 256 227 199 181 185 214 238 258 271 265 240 209 192 184 179 173 163 152 146 140 132 125 122
314 315 313 313 314 312 311 312 312 312 313 315 315 314 312 308 304 302 301 298 296 293 288 285 286 286 284 283 288 293 297 301 305 311 317 321 324 323 322 324 334 343 346 348 352 350 344 339 341 345 340 332 325 318 311 309 307 297 290 287 276 243 198 178 170 170 186 220 246 264 264 245 216 195 183 176 172 167 157 148 142 137 131 126 122
316 315 313 313 313 312 312 314 313 312 313 314 314 313 311 308 305 303 301 302 304 303 299 296 293 289 286 288 290 290 293 300 305 311 317 320 320 319 321 327 338 347 349 349 353 353 349 345 349 352 346 339 337 334 329 328 327 319 312 310 149 146 143 145 152 161 178 216 252 259 238 210 193 182 174 168 165 160 153 145 141 137 132 127 123